Weather in Lyubomirovka

Russia / Omsk Oblast     54°25′56″N   73°34′44″E
temp.,
°C
wind,
m/s
gust,
m/s
humid.,
%
clouds,
%
prec.,
mm/h
press.,
hPa
HPBL,
m
11 may, tue
tue1100:00+11nne36495 0.0 1022101
03:00+9nne35575 0.0 102279
06:00+8n35610 0.0 1023101
09:00+14n47445 0.0 1023602
12:00+17nne78325 0.0 10231998
15:00+19nne78255 0.0 10232369
18:00+19nne67242 0.0 10232335
21:00+15nne23360 0.0 102422
12 may, wed
wed1200:00+13nw22390 0.0 102411
03:00+11wnw23454 0.0 102419
06:00+11wnw335281 0.0 102439
09:00+17wnw35389 0.0 1023362
12:00+22nw5725100 0.0 10222233
15:00+22nnw8930100 0.0 10202671
18:00+19nnw61143100 0.1 10211858
21:00+16nnw5104491 0.0 1021576
13 may, thu
thu1300:00+13nnw5124899 0.0 1022396
03:00+11nnw4952100 0.0 1022266
06:00+9nnw495554 0.0 1023215
09:00+13nnw4838100 0.0 1023500
12:00+17nnw453355 0.0 10221109
15:00+14nw6866100 0.0 1021434
18:00+18nnw465599 0.0 1020970
21:00+15nnw1268100 0.0 102031
14 may, fri
fri1400:00+13ne227766 0.0 102116
03:00+12n338546 0.0 102237
06:00+10n38910 0.0 1025204
09:00+14nne56560 0.0 1026673
12:00+18n45300 0.0 10261195
15:00+21nnw45225 0.0 10261426
18:00+22nnw34215 0.0 10251507
21:00+18wnw2231100 0.0 102511
15 may, sat
sat1500:00+16ssw3334100 0.0 102435
03:00+15sw493889 0.0 1023133
06:00+15sw494942 0.3 1023143
09:00+21w5104277 0.0 1022460
12:00+27wnw483064 0.0 10202127
15:00+29nw5726100 0.0 10193322
18:00+27w34327 0.1 10181234
21:00+23wsw454194 0.3 101773